Tracking 29040 objects as of 17-Jun-2024
HD Live streaming from Space Station
objects crossing your sky now

STARLINK-4006

Track STARLINK-4006 now!
10-day predictions
STARLINK-4006 is classified as:


NORAD ID: 52676
Int'l Code: 2022-053W
Perigee: 545.9 km
Apogee: 547.8 km
Inclination: 53.2 °
Period: 95.4 minutes
Semi major axis: 6917 km
RCS: Unknown
Launch date: May 18, 2022
Source: United States (US)
Launch site: AIR FORCE EASTERN TEST RANGE (AFETR)
Your satellite tracking list
Your tracking list is empty




NASA's NSSDC Master Catalog

Two Line Element Set (TLE):
1 52676U 22053W   24168.57054307  .00000171  00000-0  28860-4 0  9997
2 52676  53.2175 107.3253 0001349  95.4626 264.6520 15.08841061115760
Source of the keplerian elements: AFSPC